Flag for South Africa Weather past 2 weeks in Worcester, South Africa

Now
63 °F

Sunny.


Feels Like: 63 °F
Forecast: 35 / 72 °F
Wind: 2 mph from North

Location: Cape Town International Airport

Current Time: Jul 23, 2014 at 1:59:12 PM

Latest Report: Jul 23, 2014 at 12:00 PM


Visibility: 10 mi

Pressure: 30.09 "Hg

Humidity: 64%

Dew point: 50 °F

Location of WorcesterLocation

Historic Weather in Worcester — Graph

°F

Worcester temperature yesterday

Maximum temperature yesterday: 66 °F (at 3:00 PM)
Minimum temperature yesterday: 46 °F (at 2:00 AM)
Average temperature yesterday: 56 °F

Past Weeks' High & Low Weather Summary

 TemperatureHumidityPressure
High73 °F (Jul 15, 1:00 PM)100% (Jul 23, 6:00 AM)30.57 "Hg (Jul 23, 6:00 AM)
Low36 °F (Jul 10, 7:00 AM)22% (Jul 15, 3:00 PM)29.74 "Hg (Jul 17, 8:00 AM)
Average54 °F75%30.19 "Hg
* Reported Jul 8 12:00 Noon — Jul 23 12:00 Noon, Worcester, Weather by CustomWeather, © 2014

Note: Actual official high and low records may vary slightly from our data, if they occured in-between our weather recording intervals... More about our weather records

Advertising

Worcester weather history for previous 24 hours

 ConditionsComfort  
Time TempWeatherWind HumidityBarometerVisibility
12:00 PM
Jul 23
63 °FSunny.2 mph64%30.09 "Hg10 mi
11:00 AM59 °FSunny.2 mph77%30.12 "Hg10 mi
10:00 AM55 °FSunny.1 mph88%30.12 "Hg10 mi
8:00 AM46 °FSunny.2 mph93%30.12 "Hg10 mi
6:00 AM46 °FClear.2 mph100%30.12 "Hg4 mi
5:00 AM48 °FClear.2 mph94%30.12 "Hg10 mi
4:00 AM45 °FClear.3 mph93%30.15 "Hg10 mi
3:00 AM48 °FClear.5 mph94%30.15 "Hg10 mi
2:00 AM48 °FClear.3 mph94%30.18 "Hg10 mi
1:00 AM48 °FClear.1 mph87%30.18 "Hg10 mi
7:00 PM
Jul 22
59 °FClear.2 mph77%30.21 "Hg10 mi
6:00 PM59 °FPassing clouds.6 mph77%30.21 "HgN/A
5:00 PM63 °FPassing clouds.8 mph68%30.18 "HgN/A
4:00 PM66 °FScattered clouds.10 mph56%30.18 "HgN/A
3:00 PM66 °FPassing clouds.12 mph56%30.15 "HgN/A
2:00 PM64 °FScattered clouds.13 mph64%30.18 "HgN/A
1:00 PM64 °FPartly sunny.12 mph64%30.18 "HgN/A
Weather by CustomWeather, © 2014

See weather overviewHow to use our weather pages